Location: Mexico
(19.4000°N, 99.1500°W)
Time: 02:05:45
(UTC-06:00)

ISS - Pass Details

Date: 23 November 2017
Orbit: 402 x 407 km, 51.6° (Epoch: 21 November)

Event Time Altitude Azimuth Distance (km) Brightness Sun altitude
Rises 18:24:22 0° 204° (SSW) 2,309 0.7 -6.9°
Reaches altitude 10° 18:26:32 10° 195° (SSW) 1,452 -0.5 -7.4°
Maximum altitude 18:29:33 36° 127° (SE) 656 -3.1 -8.1°
Enters shadow 18:32:21 12° 60° (ENE) 1,367 -1.8 -8.7°
